Flag for U.S.A. Weather past 2 weeks in Fort Lauderdale, Florida, U.S.A.

Now
79 °F

Partly cloudy.


Feels Like: 83 °F
Forecast: 80 / 88 °F
Wind: No wind

Location: Fort Lauderdale / Hollywood International Airport

Current Time: Aug 31, 2015 at 1:45:44 AM

Latest Report: Aug 31, 2015 at 12:53 AM


Visibility: 10 mi

Pressure: 30.03 "Hg

Humidity: 88%

Dew point: 75 °F

Location of Fort LauderdaleLocation

Historic Weather in Fort Lauderdale — Graph

°F

Fort Lauderdale temperature yesterday

Maximum temperature yesterday: 83 °F (at 1:53 AM)
Minimum temperature yesterday: 75 °F (at 4:53 AM)
Average temperature yesterday: 80 °F

Past Weeks' High & Low Weather Summary

 TemperatureHumidityPressure
High92 °F (Aug 23, 12:53 PM)100% (Aug 16, 3:56 AM)30.09 "Hg (Aug 16, 3:56 AM)
Low75 °F (Aug 30, 4:53 AM)57% (Aug 21, 11:53 AM)29.87 "Hg (Aug 24, 5:53 PM)
Average84 °F77%29.98 "Hg
* Reported Aug 16 12:53 AM — Aug 31 12:53 AM, Fort Lauderdale, Weather by CustomWeather, © 2015

Note: Actual official high and low records may vary slightly from our data, if they occured in-between our weather recording intervals... More about our weather records

Advertising

Fort Lauderdale weather history for previous 24 hours

 ConditionsComfort  
Time TempWeatherWind HumidityBarometerVisibility
12:53 AM
Mon, Aug 31
79 °FPartly cloudy.No wind88%30.03 "Hg10 mi
11:53 PM
Sun, Aug 30
79 °FPartly cloudy.3 mph88%30.03 "Hg10 mi
10:53 PM79 °FPartly cloudy.5 mph88%30.02 "Hg10 mi
9:53 PM80 °FMostly cloudy.10 mph87%30.02 "Hg10 mi
8:53 PM80 °FPassing clouds.6 mph81%29.99 "Hg10 mi
7:53 PM80 °FBroken clouds.7 mph81%29.98 "Hg10 mi
6:53 PM80 °FCloudy.7 mph85%29.98 "Hg10 mi
5:53 PM80 °FMostly cloudy.10 mph81%29.99 "Hg10 mi
4:53 PM79 °FCloudy.9 mph88%29.99 "Hg10 mi
3:53 PM78 °FMostly cloudy.9 mph100%29.98 "Hg10 mi
2:53 PM76 °FLight rain. Cloudy.16 mph100%30.00 "Hg9 mi
1:53 PM81 °FBroken clouds.18 mph100%29.99 "Hg10 mi
12:53 PM83 °FCloudy.15 mph82%30.01 "Hg10 mi
11:53 AM82 °FBroken clouds.20 mph82%30.01 "Hg10 mi
10:53 AM81 °FCloudy.17 mph85%30.00 "Hg10 mi
9:53 AM79 °FCloudy.24 mph94%29.97 "Hg10 mi
8:53 AM80 °FBroken clouds.18 mph100%29.96 "Hg10 mi
7:53 AM80 °FThunderstorms. Overcast.18 mph94%29.96 "Hg10 mi
6:53 AM77 °FThunderstorms. Partly cloudy.3 mph94%29.96 "Hg10 mi
5:53 AM79 °FPartly cloudy.18 mph100%29.94 "Hg10 mi
4:53 AM75 °FPartly cloudy.3 mph94%29.95 "Hg10 mi
3:53 AM81 °FLight rain. Partly cloudy.12 mph94%29.96 "Hg10 mi
2:53 AM82 °FThunderstorms. Partly cloudy.13 mph94%29.93 "Hg9 mi
1:53 AM83 °FLight rain. Partly cloudy.17 mph94%29.94 "Hg10 mi
Weather by CustomWeather, © 2015

See weather overviewHow to use our weather pages